Weather History for Crestview, FL

Change the Weather History Date:

Tuesday, July 16, 2013

  Actual Average Record
Temperature  
Mean Temperature 80 °F -  
Max Temperature 90 °F - - ()
Min Temperature 72 °F - - ()
Cooling Degree Days 16    
Growing Degree Days 30 (Base 50)    
Moisture  
Dew Point 73 °F    
Average Humidity 82    
Maximum Humidity 100    
Minimum Humidity 54    
Precipitation  
Precipitation 0.55 in - - ()
Sea Level Pressure  
Sea Level Pressure 30.16 in    
Wind  
Wind Speed 8 mph (East)    
Max Wind Speed 14 mph    
Max Gust Speed 22 mph    
Visibility 10 miles    
Events Rain , Thunderstorm    
T = Trace of Precipitation, MM = Missing Value Source: NWS Daily Summary

Daily Weather History Graph

Daily Weather History Graph

Search for Another Location

Airport:

Trip Planner

Search our weather history database for the weather conditions in past years. The results will help you decide how hot, cold, wet, or windy it might be!

Date:

Astronomy

Jul. 16, 2013 Rise Set
Actual Time 5:54 AM CDT 7:49 PM CDT
Civil Twilight 5:27 AM CDT 8:16 PM CDT
Nautical Twilight 4:54 AM CDT 8:49 PM CDT
Astronomical Twilight 4:19 AM CDT 9:24 PM CDT
Moon 1:39 PM CDT (7/16) 12:11 AM CDT (7/16)
Length of Visible Light 14h 49m
Length of Day
13h 55m
First Quarter, 56% of the Moon is Illuminated
Jul 16
First Quarter
Jul 22
Full
Jul 29
Last Quarter
Aug 6
New
Aug 14
First Quarter

Hourly Weather History & Observations

Time (CDT) Temp. Heat Index Dew Point Humidity Pressure Visibility Wind Dir Wind Speed Gust Speed Precip Events Conditions
12:58 AM 73.6 °F - 71.4 °F 93% 30.15 in 10.0 mi NE 4.6 mph - N/A   Mostly Cloudy
1:58 AM 73.4 °F - 72.3 °F 96% 30.14 in 10.0 mi NE 5.8 mph - N/A   Clear
1:59 AM 73.4 °F - 73.4 °F 100% 30.14 in 10.0 mi NE 5.8 mph - N/A   Partly Cloudy
2:09 AM 73.4 °F - 71.6 °F 94% 30.14 in 10.0 mi NE 5.8 mph - N/A   Mostly Cloudy
2:34 AM 73.4 °F - 73.4 °F 100% 30.13 in 10.0 mi NE 6.9 mph - N/A   Scattered Clouds
2:58 AM 73.2 °F - 72.9 °F 99% 30.13 in 10.0 mi NE 5.8 mph - N/A   Clear
3:58 AM 73.8 °F - 73.2 °F 98% 30.12 in 10.0 mi ENE 5.8 mph - N/A   Partly Cloudy
4:58 AM 75.2 °F - 71.8 °F 89% 30.12 in 10.0 mi East 8.1 mph - N/A   Partly Cloudy
5:58 AM 75.6 °F - 71.6 °F 87% 30.14 in 10.0 mi East 10.4 mph - N/A   Scattered Clouds
6:13 AM 75.2 °F - 71.6 °F 89% 30.14 in 10.0 mi East 9.2 mph - N/A   Mostly Cloudy
6:28 AM 75.2 °F - 71.6 °F 89% 30.14 in 10.0 mi ENE 8.1 mph - N/A   Scattered Clouds
6:58 AM 76.3 °F - 71.2 °F 84% 30.15 in 10.0 mi ENE 11.5 mph - N/A   Clear
7:43 AM 77.0 °F - 71.6 °F 83% 30.17 in 10.0 mi East 10.4 mph - N/A   Mostly Cloudy
7:58 AM 77.2 °F - 71.2 °F 82% 30.17 in 10.0 mi ENE 11.5 mph 17.3 mph N/A   Mostly Cloudy
8:08 AM 77.0 °F - 71.6 °F 83% 30.17 in 10.0 mi East 9.2 mph 18.4 mph N/A   Mostly Cloudy
8:38 AM 78.8 °F - 71.6 °F 78% 30.18 in 10.0 mi East 11.5 mph 19.6 mph N/A   Scattered Clouds
8:55 AM 80.2 °F 83.9 °F 71.4 °F 74% 30.19 in 10.0 mi ENE 11.5 mph 20.7 mph N/A   Mostly Cloudy
9:49 AM 82.4 °F 87.2 °F 71.6 °F 70% 30.17 in 10.0 mi East 12.7 mph 21.9 mph N/A   Mostly Cloudy
9:55 AM 82.2 °F 86.6 °F 71.2 °F 69% 30.19 in 10.0 mi East 12.7 mph 19.6 mph N/A   Mostly Cloudy
10:55 AM 84.4 °F 89.4 °F 70.9 °F 64% 30.19 in 10.0 mi East 13.8 mph 20.7 mph N/A   Mostly Cloudy
11:39 AM 84.2 °F 89.6 °F 71.6 °F 66% 30.20 in 10.0 mi East 12.7 mph - N/A   Mostly Cloudy
11:55 AM 85.6 °F 90.8 °F 70.9 °F 61% 30.20 in 10.0 mi ESE 9.2 mph - N/A   Mostly Cloudy
12:55 PM 86.9 °F 92.1 °F 70.5 °F 58% 30.19 in 10.0 mi East 11.5 mph 19.6 mph N/A   Mostly Cloudy
1:55 PM 88.9 °F 94.2 °F 70.2 °F 54% 30.17 in 10.0 mi ESE 10.4 mph - N/A   Mostly Cloudy
2:55 PM 88.9 °F 94.2 °F 70.2 °F 54% 30.15 in 10.0 mi ESE 8.1 mph - N/A   Mostly Cloudy
3:31 PM 87.8 °F 95.6 °F 73.4 °F 62% 30.15 in 10.0 mi SE 5.8 mph - N/A Rain Light Rain Showers
3:50 PM 84.2 °F 90.9 °F 73.4 °F 70% 30.14 in 10.0 mi SSE 9.2 mph - N/A   Mostly Cloudy
3:55 PM 82.8 °F 88.4 °F 72.9 °F 72% 30.14 in 10.0 mi SSE 8.1 mph - 0.00 in   Mostly Cloudy
4:30 PM 86.0 °F 93.4 °F 73.4 °F 66% 30.13 in 10.0 mi SSW 8.1 mph - N/A Thunderstorm Thunderstorm
4:34 PM 86.0 °F 93.4 °F 73.4 °F 66% 30.15 in 5.0 mi SSE 11.5 mph - N/A Rain , Thunderstorm Light Thunderstorms and Rain
4:55 PM 78.1 °F - 75.4 °F 91% 30.16 in 10.0 mi SSW 10.4 mph - 0.42 in Thunderstorm Thunderstorm
5:12 PM 78.8 °F - 75.2 °F 89% 30.15 in 10.0 mi South 5.8 mph - N/A   Mostly Cloudy
5:25 PM 80.6 °F 85.4 °F 73.4 °F 79% 30.15 in 10.0 mi SSW 3.5 mph - N/A Thunderstorm Mostly Cloudy
5:55 PM 80.4 °F 85.3 °F 73.9 °F 81% 30.15 in 10.0 mi SSE 5.8 mph - N/A Thunderstorm Mostly Cloudy
6:07 PM 80.6 °F 86.2 °F 75.2 °F 84% 30.15 in 10.0 mi SSE 11.5 mph - N/A Thunderstorm Thunderstorm
6:13 PM 80.6 °F 86.2 °F 75.2 °F 84% 30.16 in 5.0 mi ESE 12.7 mph - N/A Rain , Thunderstorm Light Thunderstorms and Rain
6:23 PM 80.6 °F 86.2 °F 75.2 °F 84% 30.16 in 4.0 mi ESE 8.1 mph - N/A Rain , Thunderstorm Light Thunderstorms and Rain
6:39 PM 77.0 °F - 75.2 °F 94% 30.16 in 10.0 mi South 3.5 mph - N/A Thunderstorm Thunderstorm
6:55 PM 77.0 °F - 74.1 °F 91% 30.17 in 10.0 mi NNE 1.2 mph - 0.13 in Thunderstorm Thunderstorm
7:19 PM 77.0 °F - 75.2 °F 94% 30.19 in 10.0 mi NNE 3.5 mph - N/A   Mostly Cloudy
7:56 PM 76.8 °F - 75.0 °F 94% 30.19 in 10.0 mi ENE 2.3 mph - N/A   Mostly Cloudy
8:55 PM 75.2 °F - 74.1 °F 96% 30.20 in 10.0 mi North 2.3 mph - N/A   Mostly Cloudy
9:55 PM 73.8 °F - 73.2 °F 98% 30.19 in 10.0 mi NNE 3.5 mph - N/A   Scattered Clouds
10:55 PM 73.0 °F - 72.7 °F 99% 30.20 in 10.0 mi ENE 3.5 mph - N/A   Scattered Clouds
11:55 PM 72.7 °F - 72.1 °F 98% 30.22 in 10.0 mi NE 3.5 mph - N/A   Mostly Cloudy